1491436800.23,50842,13.94,73024.8,-3.77,-4.53,-4.61,0,*59
1491436801.43,50843,13.94,73026.0,-3.79,-4.57,-4.57,0,*57
1491436802.63,50844,13.94,73020.8,-3.79,-4.57,-4.61,0,*55
1491436803.86,50845,13.94,73028.0,-3.77,-4.57,-4.61,0,*5A
1491436805.08,50846,13.94,73026.3,-3.77,-4.53,-4.61,0,*5D
1491436806.3,50847,13.94,73028.0,-3.77,-4.53,-4.61,0,*5C
1491436807.52,50848,13.94,73026.3,-3.77,-4.53,-4.57,0,*56
1491436808.75,50849,13.94,73030.3,-3.77,-4.57,-4.57,0,*53
1491436809.97,50850,13.94,73028.0,-3.77,-4.57,-4.57,0,*5B
1491436811.22,50851,13.94,73028.5,-3.77,-4.57,-4.69,0,*57
1491436812.44,50852,13.94,73034.3,-3.77,-4.53,-4.45,0,*5E
1491436813.66,50853,13.94,73028.0,-3.77,-4.57,-4.61,0,*5D
1491436814.86,50854,13.94,73024.0,-3.79,-4.57,-4.61,0,*54
1491436816.13,50855,13.94,73026.3,-3.77,-4.69,-4.85,0,*5C
1491436817.35,50856,13.94,73024.5,-3.75,-4.65,-4.81,0,*55
1491436818.62,50857,13.94,73026.0,-3.77,-4.69,-4.73,0,*57
1491436819.88,50858,13.94,73028.3,-3.77,-4.69,-4.85,0,*51
1491436821.1,50859,13.94,73026.5,-3.79,-4.61,-4.81,0,*52
1491436822.34,50860,13.94,73028.0,-3.79,-4.81,-4.93,0,*55
1491436823.58,50861,13.94,73030.8,-3.79,-4.85,-4.93,0,*50
1491436824.8,50862,13.94,73032.0,-3.79,-4.73,-4.99,0,*50
1491436826.07,50863,13.94,73024.8,-3.77,-4.81,-4.85,0,*5F
1491436827.33,50864,13.94,73024.5,-3.77,-4.73,-4.85,0,*55
1491436828.6,50865,13.94,73026.8,-3.77,-4.73,-4.81,0,*50
1491436829.8,50866,13.94,73030.0,-3.79,-4.61,-4.61,0,*50
1491436831.06,50867,13.94,73030.8,-3.77,-4.69,-4.69,0,*5F
1491436832.33,50868,13.94,73028.5,-3.77,-4.69,-4.69,0,*50
1491436833.6,50869,13.94,73028.0,-3.77,-4.73,-4.69,0,*5A
1491436834.84,50870,13.94,73028.3,-3.79,-4.81,-4.73,0,*5A
1491436836.08,50871,13.94,73030.8,-3.77,-4.61,-4.69,0,*50
1491436837.28,50872,13.94,73028.5,-3.79,-4.61,-4.61,0,*55
1491436838.51,50873,13.94,73028.3,-3.77,-4.61,-4.61,0,*5A
1491436839.71,50874,13.94,73026.5,-3.79,-4.57,-4.57,0,*53
1491436840.93,50875,13.94,73028.0,-3.77,-4.57,-4.57,0,*5C
1491436842.14,50876,13.94,73026.3,-3.79,-4.57,-4.57,0,*51
1491436843.38,50877,13.94,73030.5,-3.77,-4.61,-4.69,0,*56
1491436844.61,50878,13.94,73024.5,-3.79,-4.61,-4.69,0,*57
1491436845.81,50879,13.94,73024.0,-3.79,-4.57,-4.57,0,*5E
1491436847.03,50880,13.94,73030.0,-3.77,-4.53,-4.53,0,*56
1491436848.25,50881,13.94,73034.5,-3.77,-4.53,-4.57,0,*53
1491436849.47,50882,13.94,73030.8,-3.77,-4.53,-4.57,0,*50
1491436850.67,50883,13.94,73026.0,-3.79,-4.57,-4.57,0,*5B
1491436851.87,50884,13.94,73024.8,-3.79,-4.57,-4.53,0,*58
1491436853.07,50885,13.94,73024.5,-3.79,-4.53,-4.53,0,*5D
1491436854.29,50886,13.94,73026.0,-3.77,-4.53,-4.53,0,*50
1491436855.51,50887,13.94,73024.0,-3.77,-4.53,-4.53,0,*51
1491436856.73,50888,13.94,73022.5,-3.77,-4.53,-4.53,0,*5E
1491436857.95,50889,13.94,73020.0,-3.77,-4.53,-4.53,0,*5F
1491436859.18,50890,13.94,73020.5,-3.77,-4.57,-4.57,0,*57
1491436860.4,50891,13.94,73018.8,-3.77,-4.57,-4.53,0,*52
1491436861.6,50892,13.94,73022.3,-3.79,-4.53,-4.57,0,*5F
1491436862.79,50893,13.94,73022.5,-3.79,-4.53,-4.53,0,*5A
1491436863.99,50894,13.94,73020.0,-3.79,-4.53,-4.57,0,*59
1491436865.21,50895,13.94,73022.0,-3.77,-4.53,-4.53,0,*52
1491436866.44,50896,13.94,73022.8,-3.77,-4.21,-4.33,0,*52
1491436867.65,50897,13.94,73024.8,-3.77,-4.45,-4.57,0,*53
1491436868.88,50898,13.94,73022.3,-3.77,-4.57,-4.57,0,*5F
1491436870.1,50899,13.94,73016.5,-3.77,-4.53,-4.57,0,*5A
1491436871.3,50900,13.94,73024.3,-3.79,-4.53,-4.53,0,*51
1491436872.49,50901,13.94,73028.5,-3.79,-4.45,-4.53,0,*57
1491436873.71,50902,13.94,73026.8,-3.77,-4.29,-4.45,0,*57
1491436874.92,50903,13.94,73026.5,-3.77,-4.45,-4.53,0,*5B
1491436876.13,50904,13.94,73022.8,-3.79,-4.57,-4.57,0,*55
1491436877.35,50905,13.94,73020.5,-3.79,-4.57,-4.69,0,*59
1491436878.6,50906,13.94,73022.3,-3.77,-4.61,-4.69,0,*51
1491436879.84,50907,13.94,73018.3,-3.77,-4.61,-4.73,0,*5B
1491436881.09,50908,13.94,73020.0,-3.77,-4.61,-4.69,0,*5F
1491436882.33,50909,13.94,73022.8,-3.79,-4.69,-4.81,0,*5E
1491436883.59,50910,13.94,73028.5,-3.77,-4.69,-4.93,0,*5B
1491436884.86,50911,13.94,73030.5,-3.77,-4.73,-5.19,0,*52
1491436886.1,50912,13.94,73026.3,-3.77,-5.11,-5.43,0,*5B
1491436887.36,50913,13.94,73020.8,-3.79,-5.07,-5.11,0,*54
1491436888.59,50914,13.94,73028.0,-3.77,-4.81,-4.99,0,*53
1491436889.84,50915,13.94,73024.5,-3.79,-4.73,-5.11,0,*50
1491436891.11,50916,13.94,73024.5,-3.77,-4.85,-5.11,0,*54
1491436892.38,50917,13.94,73024.3,-3.77,-4.93,-5.07,0,*55
1491436893.62,50918,13.94,73026.5,-3.79,-4.81,-5.07,0,*57
1491436894.87,50919,13.94,73028.0,-3.79,-4.81,-5.07,0,*56
1491436896.09,50920,13.94,73024.8,-3.79,-4.81,-4.99,0,*5A
1491436897.36,50921,13.94,73024.8,-3.77,-4.81,-5.07,0,*53
1491436898.6,50922,13.94,73026.3,-3.79,-4.85,-5.11,0,*5D
1491436899.82,50923,13.94,73026.3,-3.79,-4.99,-5.07,0,*56
1491436901.03,50924,13.94,73026.8,-3.79,-4.93,-4.99,0,*5D
1491436902.28,50925,13.94,73024.8,-3.77,-4.99,-4.85,0,*55
1491436903.52,50926,13.94,73026.3,-3.75,-4.81,-4.81,0,*59
1491436904.76,50927,13.94,73024.0,-3.79,-4.85,-4.85,0,*54
1491436906.0,50928,13.94,73026.3,-3.79,-4.73,-4.73,0,*5B
1491436907.22,50929,13.94,73022.0,-3.79,-4.69,-4.61,0,*52
1491436908.46,50930,13.94,73026.8,-3.79,-4.81,-4.69,0,*54
1491436909.66,50931,13.94,73026.8,-3.79,-4.61,-4.61,0,*53
1491436910.86,50932,13.94,73028.3,-3.79,-4.61,-4.61,0,*50
1491436912.06,50933,13.94,73028.0,-3.79,-4.61,-4.61,0,*51
1491436913.25,50934,13.94,73026.3,-3.79,-4.53,-4.61,0,*57
1491436914.46,50935,13.94,73026.3,-3.79,-4.57,-4.61,0,*52
1491436915.66,50936,13.94,73028.8,-3.79,-4.57,-4.61,0,*51
1491436916.86,50937,13.94,73026.8,-3.79,-4.57,-4.61,0,*50
1491436918.08,50938,13.94,73024.5,-3.81,-4.61,-4.65,0,*59
1491436919.33,50939,13.94,73022.3,-3.79,-4.73,-4.73,0,*5B
1491436920.55,50940,13.94,73024.8,-3.79,-4.57,-4.69,0,*58
1491436921.75,50941,13.94,73022.5,-3.79,-4.57,-4.61,0,*51
1491436922.95,50942,13.94,73022.5,-3.79,-4.53,-4.57,0,*53
1491436924.18,50943,13.94,73024.5,-3.81,-4.57,-4.61,0,*54
1491436925.41,50944,13.94,73022.0,-3.81,-4.57,-4.61,0,*53
1491436926.64,50945,13.94,73022.0,-3.77,-4.57,-4.57,0,*5E
1491436927.86,50946,13.94,73022.0,-3.79,-4.61,-4.69,0,*5B
1491436929.06,50947,13.94,73016.8,-3.79,-4.61,-4.61,0,*52
1491436930.25,50948,13.94,73020.0,-3.79,-4.61,-4.61,0,*5D
1491436931.49,50949,13.94,73022.8,-3.79,-4.69,-4.69,0,*5C
1491436932.72,50950,13.94,73020.8,-3.79,-4.61,-4.69,0,*5C
1491436933.94,50951,13.94,73016.8,-3.79,-4.61,-4.69,0,*5D
1491436935.14,50952,13.94,73022.8,-3.79,-4.57,-4.61,0,*53
1491436936.34,50953,13.94,73018.0,-3.79,-4.57,-4.61,0,*52
1491436937.57,50954,13.94,73020.5,-3.81,-4.61,-4.65,0,*53
1491436938.79,50955,13.94,73020.8,-3.81,-4.61,-4.65,0,*52
1491436940.04,50956,13.94,73018.0,-3.81,-4.61,-4.73,0,*56
1491436941.27,50957,13.94,73020.0,-3.81,-4.65,-4.65,0,*54
1491436942.5,50958,13.94,73018.0,-3.81,-4.65,-4.65,0,*5B
1491436943.72,50959,13.94,73016.3,-3.81,-4.61,-4.65,0,*5E
1491436944.97,50960,13.94,73016.3,-3.81,-4.61,-4.73,0,*53
1491436946.17,50961,13.94,73020.0,-3.79,-4.57,-4.61,0,*53
1491436947.39,50962,13.94,73022.0,-3.79,-4.61,-4.69,0,*5D
1491436948.62,50963,13.94,73016.8,-3.81,-4.65,-4.65,0,*53
1491436949.82,50964,13.94,73016.8,-3.79,-4.61,-4.61,0,*53
1491436951.01,50965,13.94,73012.8,-3.79,-4.53,-4.33,0,*54
1491436952.23,50966,13.94,73014.0,-3.81,-4.49,-4.13,0,*59
1491436953.48,50967,13.94,73012.8,-3.81,-4.73,-4.65,0,*50
1491436954.68,50968,13.94,73014.5,-3.83,-4.65,-4.65,0,*5A
1491436955.93,50969,13.94,73014.3,-3.81,-4.73,-4.65,0,*5E
1491436957.13,50970,13.94,73014.5,-3.83,-4.65,-4.65,0,*53
1491436958.35,50971,13.94,73014.0,-3.81,-4.61,-4.65,0,*54
1491436959.58,50972,13.94,73014.8,-3.81,-4.49,-4.57,0,*5C
1491436960.8,50973,13.94,73016.5,-3.81,-4.61,-4.61,0,*52
1491436962.02,50974,13.94,73014.5,-3.83,-4.61,-4.73,0,*54
1491436963.25,50975,13.94,73014.8,-3.81,-4.61,-4.65,0,*50
1491436964.47,50976,13.94,73014.5,-3.81,-4.61,-4.61,0,*57
1491436965.7,50977,13.94,73014.5,-3.81,-4.61,-4.61,0,*56
1491436966.93,50978,13.94,73018.3,-3.81,-4.61,-4.61,0,*59
1491436968.15,50979,13.94,73016.3,-3.81,-4.61,-4.65,0,*5C
1491436969.38,50980,13.94,73012.8,-3.81,-4.65,-4.65,0,*5E
1491436970.63,50981,13.94,73012.0,-3.81,-4.65,-4.73,0,*58
1491436971.87,50982,13.94,73014.5,-3.81,-4.65,-4.77,0,*5F
1491436973.1,50983,13.94,73014.5,-3.81,-4.65,-4.65,0,*5D
1491436974.33,50984,13.94,73012.3,-3.81,-4.65,-4.65,0,*5A
1491436975.55,50985,13.94,73012.5,-3.81,-4.65,-4.65,0,*5B
1491436976.77,50986,13.94,73008.8,-3.83,-4.61,-4.73,0,*59
1491436978.02,50987,13.94,73014.8,-3.83,-4.73,-4.85,0,*52
1491436979.27,50988,13.94,73014.8,-3.81,-4.65,-4.77,0,*55
1491436980.54,50989,13.94,73014.5,-3.81,-4.73,-4.77,0,*53
1491436981.78,50990,13.94,73012.3,-3.81,-4.65,-4.77,0,*5C
1491436983.03,50991,13.94,73010.3,-3.81,-4.65,-4.85,0,*50
1491436984.29,50992,13.94,73010.5,-3.81,-4.65,-4.85,0,*53
1491436985.56,50993,13.94,73012.3,-3.81,-4.73,-4.89,0,*59
1491436986.8,50994,13.94,73010.5,-3.83,-4.73,-4.89,0,*5C
1491436988.05,50995,13.94,73012.5,-3.83,-4.85,-5.03,0,*57
1491436989.27,50996,13.94,73014.3,-3.83,-4.73,-4.99,0,*5F
1491436990.48,50997,13.94,73014.5,-3.83,-4.77,-4.99,0,*5A
1491436991.72,50998,13.94,73012.3,-3.83,-4.85,-5.11,0,*59
1491436992.96,50999,13.94,73014.0,-3.83,-4.85,-5.11,0,*58
1491436994.24,51000,13.94,73012.5,-3.81,-4.85,-5.23,0,*53
1491436995.52,51001,13.94,73014.0,-3.81,-4.89,-5.23,0,*5E
1491436996.77,51002,13.94,73014.3,-3.83,-4.89,-5.15,0,*5A
1491436997.99,51003,13.94,73014.0,-3.83,-4.99,-5.27,0,*5B
1491436999.25,51004,13.94,73012.3,-3.83,-5.03,-5.23,0,*5A
1491437000.51,51005,13.94,73014.5,-3.83,-5.03,-5.27,0,*5F
1491437001.78,51006,13.94,73014.0,-3.81,-5.11,-5.23,0,*59
1491437003.03,51007,13.94,73016.3,-3.81,-4.99,-5.23,0,*59
1491437004.29,51008,13.94,73016.3,-3.83,-5.03,-5.23,0,*56
1491437005.52,51009,13.94,73016.8,-3.83,-5.03,-5.35,0,*50
1491437006.8,51010,13.94,73014.8,-3.81,-4.89,-5.23,0,*5E
1491437008.05,51011,13.94,73020.0,-3.81,-5.03,-5.35,0,*5B
1491437009.27,51012,13.94,73020.8,-3.83,-5.03,-5.35,0,*5A
1491437010.5,51013,13.94,73018.5,-3.87,-5.15,-5.39,0,*54
1491437011.75,51014,13.94,73016.3,-3.87,-5.03,-5.31,0,*5C
1491437013.01,51015,13.94,73016.8,-3.87,-5.03,-5.27,0,*5A
1491437014.23,51016,13.94,73018.3,-3.87,-5.07,-5.39,0,*52
1491437015.45,51017,13.94,73016.8,-3.87,-4.93,-5.39,0,*5F
1491437016.67,51018,13.94,73012.3,-3.83,-5.03,-5.35,0,*50
1491437017.95,51019,13.94,73016.5,-3.89,-5.07,-5.31,0,*5B
1491437019.21,51020,13.94,73018.5,-3.83,-4.89,-5.15,0,*5A
1491437020.46,51021,13.94,73018.8,-3.89,-4.99,-5.07,0,*53
1491437021.73,51022,13.94,73018.5,-3.89,-4.85,-5.07,0,*5D
1491437022.99,51023,13.94,73016.8,-3.87,-4.89,-5.19,0,*51
1491437024.23,51024,13.94,73012.0,-3.87,-4.89,-5.31,0,*5C
1491437025.46,51025,13.94,73016.0,-3.87,-5.03,-5.39,0,*56
1491437026.69,51026,13.94,73018.8,-3.87,-5.15,-5.51,0,*5C
1491437027.91,51027,13.94,73012.8,-3.87,-5.39,-5.69,0,*58
1491437029.16,51028,13.94,73014.0,-3.87,-5.19,-5.31,0,*58
1491437030.44,51029,13.94,73012.0,-3.89,-5.07,-5.19,0,*52
1491437031.72,51030,13.94,73014.8,-3.89,-4.93,-5.11,0,*5E
1491437032.96,51031,13.94,73014.5,-3.87,-4.89,-4.93,0,*51
1491437034.24,51032,13.94,73012.3,-3.89,-4.85,-5.07,0,*5C
1491437035.51,51033,13.94,73014.8,-3.89,-4.93,-5.11,0,*5D
1491437036.77,51034,13.94,73014.3,-3.89,-4.99,-5.07,0,*57
1491437038.01,51035,13.94,73010.5,-3.89,-4.85,-4.99,0,*5D
1491437039.25,51036,13.88,73008.3,-3.87,-4.81,-4.81,0,*5D
1491437040.52,51037,13.94,73008.3,-3.89,-4.85,-4.85,0,*52
1491437041.8,51038,13.94,73010.3,-3.89,-4.73,-4.81,0,*50
1491437043.04,51039,13.94,73010.3,-3.87,-4.81,-4.77,0,*5B
1491437044.28,51040,13.94,73008.5,-3.87,-4.69,-4.77,0,*53
1491437045.52,51041,13.94,73008.8,-3.87,-4.69,-4.69,0,*5D
1491437046.76,51042,13.94,73008.0,-3.87,-4.73,-4.69,0,*55
1491437048.01,51043,13.94,73006.8,-3.89,-4.93,-4.99,0,*5B
1491437049.24,51044,13.94,73008.3,-3.87,-4.69,-4.77,0,*57
1491437050.52,51045,13.94,73014.0,-3.89,-4.81,-4.93,0,*54
1491437051.76,51046,13.94,73008.8,-3.87,-4.89,-4.93,0,*51
1491437053.01,51047,13.94,73008.3,-3.91,-4.93,-5.07,0,*50
1491437054.27,51048,13.94,73008.0,-3.89,-4.93,-4.93,0,*5A
1491437055.52,51049,13.94,73012.0,-3.89,-4.85,-4.99,0,*56
1491437056.79,51050,13.94,73012.8,-3.89,-4.93,-5.07,0,*5F
1491437058.04,51051,13.94,73012.5,-3.89,-4.85,-4.99,0,*5F
1491437059.28,51052,13.94,73012.5,-3.87,-4.77,-4.81,0,*56
1491437060.52,51053,13.94,73012.5,-3.87,-4.69,-4.89,0,*50
1491437061.79,51054,13.94,73016.3,-3.89,-4.81,-4.93,0,*54
1491437063.04,51055,13.94,73016.8,-3.89,-4.73,-4.99,0,*52
1491437064.31,51056,13.94,73016.0,-3.89,-4.73,-4.85,0,*5C
1491437065.58,51057,13.94,73016.5,-3.89,-4.81,-4.93,0,*57
1491437066.85,51058,13.94,73018.0,-3.89,-4.85,-4.93,0,*5C
1491437068.1,51059,13.94,73012.5,-3.89,-4.85,-4.99,0,*57
1491437069.37,51060,13.94,73016.3,-3.89,-4.85,-4.85,0,*50
1491437070.64,51061,13.94,73016.0,-3.89,-4.81,-4.93,0,*52
1491437071.92,51062,13.94,73014.5,-3.89,-4.73,-5.07,0,*50
1491437073.2,51063,13.94,73012.8,-3.89,-4.85,-5.07,0,*58
1491437074.44,51064,13.94,73016.5,-3.89,-4.85,-4.99,0,*59
1491437075.68,51065,13.94,73016.5,-3.89,-4.93,-4.99,0,*5F
1491437076.95,51066,13.94,73012.3,-3.89,-4.93,-5.19,0,*55
1491437078.21,51067,13.94,73012.8,-3.91,-5.07,-5.11,0,*59
1491437079.48,51068,13.94,73012.3,-3.89,-4.85,-4.93,0,*5F
1491437080.75,51069,13.94,73010.3,-3.89,-4.81,-4.85,0,*5D
1491437082.03,51070,13.94,73014.8,-3.89,-4.73,-4.85,0,*58
1491437083.3,51071,13.94,73008.0,-3.89,-4.81,-4.93,0,*53
1491437084.54,51072,13.94,73012.3,-3.91,-4.81,-4.85,0,*5E
1491437085.76,51073,13.94,73014.0,-3.91,-4.81,-4.99,0,*52
1491437087.04,51074,13.94,73012.5,-3.93,-4.89,-5.03,0,*5D
1491437088.28,51075,13.94,73014.3,-3.89,-4.81,-4.99,0,*5D
1491437089.5,51076,13.94,73016.0,-3.91,-4.81,-4.99,0,*57
1491437090.75,51077,13.88,73008.8,-3.91,-4.85,-5.07,0,*54
1491437091.99,51078,13.94,73014.3,-3.91,-4.93,-5.19,0,*53
1491437093.23,51079,13.94,73018.3,-3.91,-4.85,-5.19,0,*55
1491437094.49,51080,13.94,73012.5,-3.93,-4.99,-5.23,0,*55
1491437095.76,51081,13.94,73016.0,-3.89,-4.93,-5.31,0,*56
1491437097.01,51082,13.94,73016.0,-3.89,-4.99,-5.31,0,*5F
1491437098.25,51083,13.94,73016.8,-3.93,-5.11,-5.47,0,*55
1491437099.51,51084,13.94,73016.5,-3.91,-5.19,-5.31,0,*59
1491437100.76,51085,13.94,73018.0,-3.91,-5.11,-5.19,0,*5A
1491437102.04,51086,13.94,73012.8,-3.89,-5.07,-5.07,0,*58
1491437103.23,51087,13.94,73018.0,-3.91,-4.99,-4.99,0,*50
1491437104.44,51088,13.94,73018.8,-3.91,-4.85,-4.99,0,*52
1491437105.69,51089,13.94,73018.8,-3.91,-4.85,-5.07,0,*55
1491437106.94,51090,13.94,73018.3,-3.91,-4.81,-5.07,0,*59
1491437108.15,51091,13.94,73016.0,-3.91,-4.93,-4.99,0,*5D
1491437109.37,51092,13.94,73018.0,-3.91,-4.81,-4.99,0,*5D
1491437110.62,51093,13.94,73020.0,-3.91,-4.81,-5.07,0,*5A
1491437111.83,51094,13.94,73022.5,-3.91,-4.81,-4.99,0,*5B
1491437113.08,51095,13.94,73022.0,-3.91,-4.81,-5.07,0,*5C
1491437114.33,51096,13.94,73020.3,-3.91,-4.93,-5.11,0,*5B
1491437115.57,51097,13.94,73020.3,-3.91,-4.93,-5.11,0,*5A
1491437116.82,51098,13.88,73018.3,-3.93,-4.99,-5.15,0,*59
1491437118.06,51099,13.88,73016.3,-3.91,-4.93,-5.11,0,*54
1491437119.31,51100,13.94,73020.3,-3.93,-4.99,-5.23,0,*5C
1491437120.58,51101,13.94,73022.0,-3.89,-4.93,-5.19,0,*55
1491437121.83,51102,13.94,73024.5,-3.91,-4.93,-5.07,0,*50
1491437123.05,51103,13.94,73020.0,-3.91,-4.81,-4.99,0,*54
1491437124.26,51104,13.94,73020.5,-3.91,-4.81,-4.99,0,*53
1491437125.51,51105,13.94,73020.5,-3.91,-4.85,-5.03,0,*54
1491437126.75,51106,13.94,73020.5,-3.91,-4.81,-4.93,0,*5B
1491437128.0,51107,13.94,73020.3,-3.91,-4.85,-5.07,0,*52
1491437129.24,51108,13.88,73018.5,-3.91,-4.73,-4.85,0,*5F
1491437130.52,51109,13.94,73018.3,-3.93,-4.89,-5.27,0,*50
1491437131.77,51110,13.94,73020.5,-3.91,-4.93,-5.23,0,*55
1491437133.01,51111,13.94,73020.3,-3.91,-4.85,-5.11,0,*52
1491437134.26,51112,13.94,73020.5,-3.91,-4.93,-5.11,0,*56
1491437135.48,51113,13.94,73022.5,-3.91,-4.99,-5.19,0,*55
1491437136.7,51114,13.94,73024.5,-3.91,-5.07,-5.35,0,*5A
1491437137.95,51115,13.94,73022.8,-3.93,-5.03,-5.47,0,*58
1491437139.23,51116,13.94,73020.0,-3.93,-5.11,-5.61,0,*5C
1491437140.51,51117,13.94,73022.5,-3.93,-5.23,-5.69,0,*54
1491437141.73,51118,13.88,73018.5,-3.91,-5.35,-5.77,0,*51
1491437142.98,51119,13.94,73022.8,-3.93,-5.47,-5.93,0,*5D
1491437144.2,51120,13.94,73024.5,-3.93,-5.51,-6.01,0,*58
1491437145.45,51121,13.94,73022.0,-3.93,-5.61,-6.05,0,*5E
1491437146.7,51122,13.94,73026.5,-3.93,-5.65,-6.01,0,*5D
1491437147.97,51123,13.94,73026.0,-3.93,-5.65,-5.93,0,*54
1491437149.25,51124,13.94,73024.3,-3.93,-5.61,-5.89,0,*5C
1491437150.5,51125,13.88,73024.5,-3.93,-5.51,-5.89,0,*5E
1491437151.76,51126,13.94,73028.0,-3.93,-5.51,-5.93,0,*56
1491437153.03,51127,13.94,73024.5,-3.93,-5.61,-5.93,0,*54
1491437154.27,51128,13.94,73026.0,-3.93,-5.61,-6.05,0,*57
1491437155.53,51129,13.94,73024.5,-3.93,-5.51,-5.89,0,*52
1491437156.75,51130,13.94,73024.3,-3.95,-5.61,-6.01,0,*5C
1491437157.97,51131,13.94,73020.5,-3.95,-5.51,-5.77,0,*5C
1491437159.2,51132,13.94,73022.3,-3.95,-5.51,-5.69,0,*50
1491437160.43,51133,13.94,73024.5,-3.95,-5.39,-5.61,0,*57
1491437161.64,51134,13.94,73024.8,-3.95,-5.39,-5.51,0,*53
1491437162.86,51135,13.94,73026.3,-3.97,-5.39,-5.43,0,*53
1491437164.09,51136,13.94,73028.0,-3.95,-5.27,-5.35,0,*5C
1491437165.35,51137,13.94,73026.0,-3.95,-5.27,-5.27,0,*5E
1491437166.6,51138,13.94,73024.3,-3.95,-5.15,-5.27,0,*50
1491437167.89,51139,13.94,73026.0,-3.97,-5.15,-5.31,0,*54
1491437169.15,51140,13.94,73026.8,-3.95,-5.03,-5.11,0,*5D
1491437170.37,51141,13.94,73026.0,-3.95,-4.99,-5.03,0,*5D
1491437171.59,51142,13.94,73026.5,-3.95,-4.89,-4.99,0,*5D
1491437172.81,51143,13.94,73026.8,-3.95,-4.85,-4.99,0,*50
1491437174.02,51144,13.94,73024.3,-3.95,-4.77,-4.99,0,*5A
1491437175.27,51145,13.94,73024.0,-3.95,-4.85,-5.03,0,*54
1491437176.53,51146,13.94,73024.3,-3.95,-4.89,-5.03,0,*5B
1491437177.82,51147,13.94,73026.8,-3.97,-5.03,-5.07,0,*5F
1491437179.04,51148,13.94,73024.8,-3.95,-4.89,-4.99,0,*57
1491437180.29,51149,13.94,73022.5,-3.95,-4.89,-4.85,0,*5B
1491437181.53,51150,13.94,73024.8,-3.95,-4.77,-4.77,0,*5F
1491437182.77,51151,13.94,73022.8,-3.95,-4.77,-4.77,0,*5E
1491437184.02,51152,13.94,73022.3,-3.95,-4.73,-4.73,0,*5D
1491437185.26,51153,13.94,73020.5,-3.95,-4.69,-4.73,0,*57
1491437186.51,51154,13.94,73022.8,-3.95,-4.73,-4.69,0,*50
1491437187.75,51155,13.94,73020.8,-3.95,-4.73,-4.69,0,*51
1491437189.0,51156,13.94,73024.0,-3.95,-4.69,-4.73,0,*52
1491437190.24,51157,13.94,73020.8,-3.95,-4.69,-4.73,0,*53
1491437191.48,51158,13.94,73028.0,-3.95,-4.73,-4.73,0,*57
1491437192.71,51159,13.94,73028.8,-3.95,-4.61,-4.73,0,*55
1491437193.94,51160,13.88,73026.5,-3.97,-4.53,-4.53,0,*5E
1491437195.14,51161,13.94,73028.8,-3.95,-4.61,-4.61,0,*5D
1491437196.36,51162,13.94,73028.3,-3.95,-4.61,-4.73,0,*5D
1491437197.61,51163,13.94,73026.3,-3.95,-4.73,-4.73,0,*5F
1491437198.83,51164,13.94,73022.0,-3.95,-4.89,-4.99,0,*59
1491437200.08,51165,13.94,73024.5,-3.95,-4.89,-5.15,0,*5D
1491437201.33,51166,13.94,73022.5,-3.93,-4.99,-5.27,0,*58
1491437202.61,51167,13.94,73018.3,-3.93,-5.03,-5.23,0,*5F
1491437203.86,51168,13.94,73018.8,-3.93,-4.99,-5.03,0,*50
1491437205.11,51169,13.94,73020.0,-3.95,-4.85,-4.89,0,*59
1491437206.33,51170,13.94,73016.0,-3.95,-4.99,-5.11,0,*5C
1491437207.56,51171,13.94,73014.0,-3.93,-5.35,-5.35,0,*5A
1491437208.79,51172,13.94,73006.3,-3.97,-5.39,-5.43,0,*50
1491437210.04,51173,13.94,73008.8,-3.97,-5.31,-5.39,0,*54
1491437211.29,51174,13.94,72992.5,-3.97,-4.53,-4.77,0,*5D
1491437212.54,51175,13.94,72986.0,-3.95,-4.73,-4.73,0,*58
1491437213.82,51176,13.94,72992.8,-3.97,-4.93,-5.03,0,*51
1491437215.03,51177,13.94,73002.3,-3.95,-4.85,-4.99,0,*57
1491437216.25,51178,13.88,73000.8,-3.95,-4.85,-4.99,0,*58
1491437217.53,51179,13.94,73002.8,-3.97,-4.81,-4.89,0,*5E
1491437218.81,51180,13.94,73008.0,-3.97,-4.81,-5.03,0,*5B
1491437220.1,51181,13.94,73010.0,-3.97,-5.03,-5.07,0,*55
1491437221.36,51182,13.94,73014.0,-3.95,-4.89,-5.03,0,*53
1491437222.64,51183,13.94,73012.5,-3.97,-4.93,-5.07,0,*5F
1491437223.92,51184,13.94,73012.3,-3.97,-4.89,-5.07,0,*53
1491437225.21,51185,13.94,73014.8,-3.97,-4.89,-5.15,0,*51
1491437226.48,51186,13.94,73012.0,-3.97,-4.93,-5.15,0,*59
1491437227.71,51187,13.94,73016.3,-3.95,-4.99,-5.27,0,*51
1491437228.97,51188,13.94,73016.0,-3.97,-5.07,-5.51,0,*5B
1491437230.22,51189,13.94,73016.8,-3.95,-5.15,-5.69,0,*50
1491437231.48,51190,13.94,73018.8,-3.97,-5.39,-5.93,0,*51
1491437232.73,51191,13.94,73018.5,-3.97,-5.43,-5.81,0,*5E
1491437233.96,51192,13.94,73018.5,-3.99,-5.39,-5.65,0,*54
1491437235.2,51193,13.94,73020.0,-3.97,-5.51,-6.31,0,*57
1491437236.46,51194,13.94,73020.5,-3.97,-5.85,-6.47,0,*58
1491437237.69,51195,13.94,73016.0,-3.97,-5.97,-6.47,0,*5A
1491437238.93,51196,13.94,73020.8,-3.99,-5.93,-6.31,0,*52
1491437240.17,51197,13.94,73022.5,-3.99,-5.93,-6.35,0,*57
1491437241.37,51198,13.94,73022.8,-3.99,-5.97,-6.43,0,*5D
1491437242.63,51199,13.94,73016.8,-3.97,-6.23,-6.51,0,*5D
1491437243.86,51200,13.94,73022.8,-3.99,-6.19,-6.43,0,*5A
1491437245.12,51201,13.94,73022.5,-3.99,-6.19,-6.23,0,*5D
1491437246.36,51202,13.94,73020.0,-4.01,-6.23,-6.13,0,*52
1491437247.59,51203,13.94,73018.0,-3.99,-6.05,-5.93,0,*5A
1491437248.85,51204,13.94,73016.0,-3.99,-5.93,-5.69,0,*54
1491437250.11,51205,13.94,73018.5,-4.01,-5.77,-5.55,0,*56
1491437251.33,51206,13.94,73018.5,-3.99,-5.73,-5.43,0,*50
1491437252.58,51207,13.94,73020.3,-4.01,-5.61,-5.35,0,*55
1491437253.82,51208,13.88,73012.8,-3.99,-5.39,-5.15,0,*53
1491437255.1,51209,13.94,73018.3,-4.01,-5.23,-5.07,0,*5C
1491437256.36,51210,13.94,73016.5,-3.99,-5.03,-4.93,0,*5C
1491437257.61,51211,13.94,73016.3,-4.01,-4.99,-4.93,0,*59
1491437258.88,51212,13.94,73012.0,-4.01,-4.85,-4.85,0,*50
1491437260.15,51213,13.94,73014.0,-4.01,-4.85,-4.81,0,*55
1491437261.41,51214,13.94,73014.8,-3.99,-4.89,-4.89,0,*50
1491437262.68,51215,13.94,73016.0,-4.01,-4.85,-4.85,0,*57
1491437263.92,51216,13.94,73012.3,-3.99,-4.77,-4.77,0,*52
1491437265.17,51217,13.94,73014.8,-3.99,-4.73,-4.73,0,*53
1491437266.45,51218,13.94,73016.8,-4.01,-4.85,-4.85,0,*5A
1491437267.69,51219,13.94,73014.8,-3.99,-4.77,-4.81,0,*54
1491437268.92,51220,13.94,73016.0,-3.99,-4.65,-4.73,0,*50
1491437270.19,51221,13.94,73014.8,-4.01,-4.69,-4.77,0,*5F
1491437271.44,51222,13.94,73012.5,-3.99,-4.77,-4.77,0,*55
1491437272.69,51223,13.94,73008.8,-3.99,-4.73,-4.73,0,*54
1491437273.95,51224,13.94,73012.3,-4.01,-4.93,-4.93,0,*55
1491437275.21,51225,13.88,73002.3,-3.99,-4.81,-4.89,0,*5A
1491437276.46,51226,13.94,73006.5,-3.99,-4.81,-4.81,0,*51
1491437277.71,51227,13.88,73000.5,-3.99,-4.81,-4.81,0,*50
1491437278.95,51228,13.88,73006.0,-3.99,-4.77,-4.77,0,*5F
1491437280.21,51229,13.94,73008.0,-3.99,-5.03,-4.93,0,*56
1491437281.45,51230,13.94,73012.5,-3.99,-4.93,-4.93,0,*56
1491437282.72,51231,13.88,73008.8,-3.99,-5.07,-5.07,0,*57
1491437283.97,51232,13.94,73002.3,-3.99,-4.89,-4.89,0,*54
1491437285.25,51233,13.94,72994.5,-4.01,-4.81,-4.85,0,*57
1491437286.52,51234,13.94,72988.3,-4.01,-4.69,-4.77,0,*5B
1491437287.79,51235,13.94,72984.3,-4.01,-4.77,-4.77,0,*55
1491437289.03,51236,13.94,72996.3,-3.99,-4.81,-4.77,0,*59
1491437290.28,51237,13.94,72996.8,-3.99,-4.77,-4.77,0,*51
1491437291.52,51238,13.88,73002.0,-3.99,-4.77,-4.77,0,*5E
1491437292.79,51239,13.94,73010.5,-4.01,-4.93,-4.85,0,*5E
1491437294.07,51240,13.94,73010.0,-3.97,-4.81,-4.81,0,*5F
1491437295.35,51241,13.94,73008.3,-3.97,-4.73,-4.81,0,*53
1491437296.6,51242,13.88,73004.3,-3.99,-4.73,-4.77,0,*57
1491437297.84,51243,13.94,73008.3,-3.99,-4.77,-4.77,0,*52
1491437299.09,51244,13.94,73006.8,-3.99,-4.77,-4.77,0,*55
1491437300.33,51245,13.88,73006.5,-3.99,-4.77,-4.77,0,*54
1491437301.58,51246,13.94,73010.8,-3.99,-4.77,-4.77,0,*57
1491437302.82,51247,13.94,73008.8,-3.99,-4.77,-4.73,0,*52
1491437304.07,51248,13.94,73008.3,-3.99,-4.77,-4.77,0,*59
1491437305.34,51249,13.94,73010.5,-4.01,-4.81,-4.77,0,*57
1491437306.58,51250,13.94,73014.3,-3.99,-4.77,-4.77,0,*50
1491437307.85,51251,13.94,73012.3,-4.01,-4.77,-4.81,0,*5E
1491437309.1,51252,13.94,73016.3,-3.99,-4.73,-4.77,0,*56
1491437310.35,51253,13.94,73014.5,-3.99,-4.73,-4.77,0,*57
1491437311.62,51254,13.88,73010.3,-3.97,-4.77,-4.81,0,*53
1491437312.9,51255,13.94,73010.8,-3.97,-4.77,-4.81,0,*52